Preview of NWS' New Version of Forecast
This preview is not operational and should not be used for support decisions.

Regional Weather Roundup (RWR)

Issued by National Weather Service (NWS)

                            
000
ASUS43 KDTX 191710
RWRMI 
MICHIGAN HOURLY REGIONAL WEATHER ROUNDUP
NATIONAL WEATHER SERVICE DETROIT/PONTIAC MI
100 PM EDT FRI APR 19 2019

NOTE: "FAIR" INDICATES FEW OR NO CLOUDS BELOW 12,000 FEET WITH NO
SIGNIFICANT WEATHER AND/OR OBSTRUCTION TO VISIBILITY.

MIZ047>049-052>055-059>063-066>070-074>076-081>083-191800-
SOUTHEAST LOWER MICHIGAN
  
CITY           SKY/WX    TMP DP  RH WIND       PRES   REMARKS
ADRIAN         CLOUDY    44  38  79 NE15      29.71S                  
ALMA           CLOUDY    44  38  79 N12G18    29.81S                  
ANN ARBOR      CLOUDY    43  39  86 NW13      29.71S                  
BAD AXE        CLOUDY    37  36  93 N17G28    29.77S WCI  28          
CARO           CLOUDY    38  36  94 N16G24    29.77S WCI  28          
DETROIT CITY   CLOUDY    42  37  82 N17G24    29.72R                  
DETROIT        CLOUDY    44  37  76 N17G23    29.70R                  
FLINT          CLOUDY    40  36  86 N20G31    29.76S WCI  30          
GROSSE ILE     CLOUDY    44  40  84 N14G22    29.69S                  
HILLSDALE      CLOUDY    42  37  81 N14G22    29.71S                  
HOWELL         CLOUDY    40  36  86 N14       29.75R WCI  32          

CITY           SKY/WX    TMP DP  RH WIND       PRES   REMARKS
JACKSON        CLOUDY    42  38  85 N12G22    29.73S                  
LAMBERTVILLE   CLOUDY    46  42  85 N12G17    29.70R                  
LANSING        CLOUDY    41  37  86 N16G25    29.78S                  
LAPEER         CLOUDY    39  38  94 N13G18    29.75R WCI  32          
MASON          CLOUDY    41  37  86 N14G22    29.76S                  
MONROE         CLOUDY    46  45  98 N14       29.70R                  
MT. CLEMENS    CLOUDY    41  41 100 N18       29.71R                  
PONTIAC        CLOUDY    40  38  93 N14       29.72R WCI  32          
PORT HOPE        N/A     38  36  92 N17G28    29.76S WCI  28          
PORT HURON     CLOUDY    41  36  81 N12G22    29.72R                  
TRI CITIES     CLOUDY    42  38  85 NE20G29   29.80S                  
MIDLAND        CLOUDY    42  36  78 N10G21    29.81F                  
TROY           CLOUDY    41  37  83 N12G21    29.74R                  
SAGINAW HB     CLOUDY    43  37  81 N20       29.80R                  
$$
MIZ043>046-050>051-056>058-064>065-071>073-077>080-191800-
SOUTHWEST LOWER MICHIGAN
  
CITY           SKY/WX    TMP DP  RH WIND       PRES   REMARKS
BATTLE CREEK   CLOUDY    44  37  76 NE22G30   29.76F                  
BENTON HARBOR  CLOUDY    42  36  79 N9G17     29.80F                  
BIG RAPIDS     CLOUDY    43  36  75 NE6       29.84S                  
COLDWATER      CLOUDY    43  39  85 N14G23    29.74R                  
FREMONT        CLOUDY    45  36  69 N8        29.84F                  
HOLLAND        CLOUDY    46  35  65 N14G23    29.81S                  
GRAND RAPIDS   CLOUDY    45  36  70 NE18      29.80S                  
IONIA          CLOUDY    42  34  74 N15G28    29.79S                  
KALAMAZOO      CLOUDY    44  36  73 N14G28    29.76F                  
LUDINGTON      PTSUNNY   47  37  69 N13       29.87R                  
MARSHALL       CLOUDY    42  41  95 N10G16    29.75S                  
MOUNT PLEASANT CLOUDY    43  38  82 N15G22    29.81S                  
MUSKEGON       CLOUDY    47  35  63 N16G22    29.85S                  
SOUTH HAVEN    CLOUDY    47  37  69 N16       29.80S                  
$$
MIZ016>042-191800-
NORTHERN LOWER MICHIGAN
  
CITY           SKY/WX    TMP DP  RH WIND       PRES   REMARKS
ALPENA         CLOUDY    43  36  76 N17G26    29.87R                  
BEAVER ISLAND  FAIR      47  28  47 NE13G21   29.93S                  
BELLAIRE       CLOUDY    47  36  65 N6        29.89R                  
CADILLAC       CLOUDY    43  38  84 N12       29.84R                  
CHARLEVOIX     FAIR      42  33  71 N12G21    29.94R                  
FRANKFORT      FAIR      47  32  56 N12G21    29.91R                  
GRAYLING       CLOUDY    43  35  74 NE14      29.85R                  
HARBOR SPRINGS FAIR      49  29  46 NE13G22   29.89R                  
HOUGHTON LAKE  CLOUDY    42  35  76 NE14      29.83S                  
MANISTEE       PTSUNNY   47  36  65 NW15      29.88R                  
OSCODA         CLOUDY    40  37  87 N16G25    29.82S WCI  32          
PELLSTON       FAIR      49  30  48 N13G23    29.90S                  
ROGERS CITY    FAIR      41  33  73 N10G16    29.89F                  
TRAVERSE CITY  FAIR      45  34  65 N14       29.89R                  
$$
MIZ007>008-015-191800-
EASTERN UPPER MICHIGAN
  
CITY           SKY/WX    TMP DP  RH WIND       PRES   REMARKS
KINROSS        FAIR      43  30  60 NW15      29.90F                  
MACKINAC ISLAN FAIR      46  32  57 N9        29.90R                  
NEWBERRY       FAIR      44  27  52 N8G16     29.93F                  
S. S. MARIE    FAIR      47  32  56 NW13G20   29.90R                  
MUNISING         N/A     37  29  72 NW8       29.99S WCI  31          
$$
MIZ004>006-011>014-085-191800-
CENTRAL UPPER MICHIGAN
  
CITY           SKY/WX    TMP DP  RH WIND       PRES   REMARKS
MANISTIQUE     FAIR      51  12  21 N15       29.93F                  
ESCANABA       FAIR      50  25  37 NE14      29.96S                  
MENOMINEE      FAIR      47  31  53 E14       29.96S                  
SAWYER-GWINN   SUNNY     46  25  42 N14       29.97R                  
$$
MIZ001>003-009>011-084-191800-
WESTERN UPPER MICHIGAN
  
CITY           SKY/WX    TMP DP  RH WIND       PRES   REMARKS
IRON MOUNTAIN  FAIR      54  22  28 NE14G21   29.95R                  
HOUGHTON       FAIR      53  21  28 NW9       29.98F                  
COPPER HARBOR    N/A     40  35  83 CALM      30.00S                  
IRONWOOD       FAIR      52  20  28 N10       30.01S                  
$$

ABBREVIATIONS USED IN REMARKS
   TC - TEMPERATURE IN CELSIUS
  WCI - WIND CHILL INDEX
   HX - HEAT INDEX
  VSB - VISIBILITY